Year,Month,Day,Hour,Minute,Value (Times are PST for temperature in C)
2016,11,10,00,00,12.10
2016,11,10,00,01,12.10
2016,11,10,00,02,12.10
2016,11,10,00,03,12.10
2016,11,10,00,04,12.10
2016,11,10,00,05,12.10
2016,11,10,00,06,12.10
2016,11,10,00,07,12.10
2016,11,10,00,08,12.00
2016,11,10,00,09,12.00
2016,11,10,00,10,12.00
2016,11,10,00,11,12.00
2016,11,10,00,12,12.00
2016,11,10,00,13,12.00
2016,11,10,00,14,12.00
2016,11,10,00,15,12.00
2016,11,10,00,16,11.90
2016,11,10,00,17,11.90
2016,11,10,00,18,11.90
2016,11,10,00,19,11.90
2016,11,10,00,20,11.90
2016,11,10,00,21,11.90
2016,11,10,00,22,11.90
2016,11,10,00,23,11.80
2016,11,10,00,24,11.80
2016,11,10,00,25,11.80
2016,11,10,00,26,11.80
2016,11,10,00,27,11.80
2016,11,10,00,28,11.80
2016,11,10,00,29,11.80
2016,11,10,00,30,11.70
2016,11,10,00,31,11.70
2016,11,10,00,32,11.70
2016,11,10,00,33,11.70
2016,11,10,00,34,11.70
2016,11,10,00,35,11.70
2016,11,10,00,36,11.70
2016,11,10,00,37,11.70
2016,11,10,00,38,11.60
2016,11,10,00,39,11.60
2016,11,10,00,40,11.60
2016,11,10,00,41,11.60
2016,11,10,00,42,11.60
2016,11,10,00,43,11.60
2016,11,10,00,44,11.60
2016,11,10,00,45,11.60
2016,11,10,00,46,11.60
2016,11,10,00,47,11.60
2016,11,10,00,48,11.50
2016,11,10,00,49,11.50
2016,11,10,00,50,11.50
2016,11,10,00,51,11.40
2016,11,10,00,52,11.40
2016,11,10,00,53,11.40
2016,11,10,00,54,11.40
2016,11,10,00,55,11.40
2016,11,10,00,56,11.30
2016,11,10,00,57,11.30
2016,11,10,00,58,11.30
2016,11,10,00,59,11.30
2016,11,10,01,00,11.30
2016,11,10,01,01,11.30
2016,11,10,01,02,11.30
2016,11,10,01,03,11.30
2016,11,10,01,04,11.20
2016,11,10,01,05,11.20
2016,11,10,01,06,11.20
2016,11,10,01,07,11.20
2016,11,10,01,08,11.20
2016,11,10,01,09,11.20
2016,11,10,01,10,11.10
2016,11,10,01,11,11.10
2016,11,10,01,12,11.10
2016,11,10,01,13,11.10
2016,11,10,01,14,11.10
2016,11,10,01,15,11.10
2016,11,10,01,16,11.10
2016,11,10,01,17,11.10
2016,11,10,01,18,11.10
2016,11,10,01,19,11.10
2016,11,10,01,20,11.10
2016,11,10,01,21,11.20
2016,11,10,01,22,11.20
2016,11,10,01,23,11.20
2016,11,10,01,24,11.20
2016,11,10,01,25,11.30
2016,11,10,01,26,11.30
2016,11,10,01,27,11.30
2016,11,10,01,28,11.20
2016,11,10,01,29,11.20
2016,11,10,01,30,11.20
2016,11,10,01,31,11.20
2016,11,10,01,32,11.10
2016,11,10,01,33,11.10
2016,11,10,01,34,11.10
2016,11,10,01,35,11.10
2016,11,10,01,36,11.00
2016,11,10,01,37,11.00
2016,11,10,01,38,11.00
2016,11,10,01,39,11.00
2016,11,10,01,40,11.00
2016,11,10,01,41,11.00
2016,11,10,01,42,11.00
2016,11,10,01,43,11.00
2016,11,10,01,44,11.00
2016,11,10,01,45,10.90
2016,11,10,01,46,11.00
2016,11,10,01,47,10.90
2016,11,10,01,48,10.90
2016,11,10,01,49,10.90
2016,11,10,01,50,10.90
2016,11,10,01,51,10.90
2016,11,10,01,52,10.90
2016,11,10,01,53,10.90
2016,11,10,01,54,10.90
2016,11,10,01,55,10.90
2016,11,10,01,56,10.90
2016,11,10,01,57,10.90
2016,11,10,01,58,10.90
2016,11,10,01,59,10.90
2016,11,10,02,00,10.90
2016,11,10,02,01,10.90
2016,11,10,02,02,10.90
2016,11,10,02,03,10.90
2016,11,10,02,04,10.90
2016,11,10,02,05,10.90
2016,11,10,02,06,10.90
2016,11,10,02,07,10.90
2016,11,10,02,08,10.90
2016,11,10,02,09,10.90
2016,11,10,02,10,10.90
2016,11,10,02,11,10.90
2016,11,10,02,12,10.90
2016,11,10,02,13,10.90
2016,11,10,02,14,10.90
2016,11,10,02,15,10.90
2016,11,10,02,16,10.90
2016,11,10,02,17,10.90
2016,11,10,02,18,10.90
2016,11,10,02,19,10.90
2016,11,10,02,20,10.90
2016,11,10,02,21,10.90
2016,11,10,02,22,10.90
2016,11,10,02,23,10.90
2016,11,10,02,24,10.90
2016,11,10,02,25,11.00
2016,11,10,02,26,11.00
2016,11,10,02,27,11.00
2016,11,10,02,28,11.00
2016,11,10,02,29,11.00
2016,11,10,02,30,11.00
2016,11,10,02,31,10.90
2016,11,10,02,32,10.90
2016,11,10,02,33,10.90
2016,11,10,02,34,10.80
2016,11,10,02,35,10.80
2016,11,10,02,36,10.80
2016,11,10,02,37,10.80
2016,11,10,02,38,10.80
2016,11,10,02,39,10.80
2016,11,10,02,40,10.80
2016,11,10,02,41,10.80
2016,11,10,02,42,10.70
2016,11,10,02,43,10.70
2016,11,10,02,44,10.80
2016,11,10,02,45,10.80
2016,11,10,02,46,10.80
2016,11,10,02,47,10.80
2016,11,10,02,48,10.80
2016,11,10,02,49,10.80
2016,11,10,02,50,10.80
2016,11,10,02,51,10.80
2016,11,10,02,52,10.80
2016,11,10,02,53,10.80
2016,11,10,02,54,10.80
2016,11,10,02,55,10.80
2016,11,10,02,56,10.80
2016,11,10,02,57,10.80
2016,11,10,02,58,10.80
2016,11,10,02,59,10.80
2016,11,10,03,00,10.80
2016,11,10,03,01,10.80
2016,11,10,03,02,10.80
2016,11,10,03,03,10.80
2016,11,10,03,04,10.80
2016,11,10,03,05,10.80
2016,11,10,03,06,10.80
2016,11,10,03,07,10.70
2016,11,10,03,08,10.70
2016,11,10,03,09,10.70
2016,11,10,03,10,10.70
2016,11,10,03,11,10.70
2016,11,10,03,12,10.70
2016,11,10,03,13,10.80
2016,11,10,03,14,10.80
2016,11,10,03,15,10.80
2016,11,10,03,16,10.80
2016,11,10,03,17,10.80
2016,11,10,03,18,10.80
2016,11,10,03,19,10.80
2016,11,10,03,20,10.80
2016,11,10,03,21,10.80
2016,11,10,03,22,10.80
2016,11,10,03,23,10.80
2016,11,10,03,24,10.80
2016,11,10,03,25,10.80
2016,11,10,03,26,10.80
2016,11,10,03,27,10.80
2016,11,10,03,28,10.80
2016,11,10,03,29,10.80
2016,11,10,03,30,10.80
2016,11,10,03,31,10.80
2016,11,10,03,32,10.80
2016,11,10,03,33,10.80
2016,11,10,03,34,10.80
2016,11,10,03,35,10.80
2016,11,10,03,36,10.80
2016,11,10,03,37,10.80
2016,11,10,03,38,10.80
2016,11,10,03,39,10.70
2016,11,10,03,40,10.70
2016,11,10,03,41,10.70
2016,11,10,03,42,10.70
2016,11,10,03,43,10.70
2016,11,10,03,44,10.70
2016,11,10,03,45,10.70
2016,11,10,03,46,10.70
2016,11,10,03,47,10.70
2016,11,10,03,48,10.70
2016,11,10,03,49,10.70
2016,11,10,03,50,10.70
2016,11,10,03,51,10.70
2016,11,10,03,52,10.70
2016,11,10,03,53,10.70
2016,11,10,03,54,10.70
2016,11,10,03,55,10.70
2016,11,10,03,56,10.70
2016,11,10,03,57,10.70
2016,11,10,03,58,10.80
2016,11,10,03,59,10.80
2016,11,10,04,00,10.80
2016,11,10,04,01,10.80
2016,11,10,04,02,10.80
2016,11,10,04,03,10.80
2016,11,10,04,04,10.80
2016,11,10,04,05,10.70
2016,11,10,04,06,10.70
2016,11,10,04,07,10.70
2016,11,10,04,08,10.70
2016,11,10,04,09,10.70
2016,11,10,04,10,10.60
2016,11,10,04,11,10.60
2016,11,10,04,12,10.60
2016,11,10,04,13,10.60
2016,11,10,04,14,10.60
2016,11,10,04,15,10.50
2016,11,10,04,16,10.50
2016,11,10,04,17,10.50
2016,11,10,04,18,10.50
2016,11,10,04,19,10.40
2016,11,10,04,20,10.40
2016,11,10,04,21,10.40
2016,11,10,04,22,10.40
2016,11,10,04,23,10.40
2016,11,10,04,24,10.40
2016,11,10,04,25,10.40
2016,11,10,04,26,10.40
2016,11,10,04,27,10.40
2016,11,10,04,28,10.40
2016,11,10,08,09,10.20
2016,11,10,08,10,10.20
2016,11,10,08,11,10.20
2016,11,10,08,12,10.20
2016,11,10,08,13,10.20
2016,11,10,08,14,10.20
2016,11,10,08,15,10.20
2016,11,10,08,16,10.30
2016,11,10,08,17,10.30
2016,11,10,08,18,10.30
2016,11,10,08,19,10.30
2016,11,10,08,20,10.30
2016,11,10,08,21,10.30
2016,11,10,08,22,10.30
2016,11,10,08,23,10.30
2016,11,10,08,24,10.40
2016,11,10,08,25,10.40
2016,11,10,08,26,10.40
2016,11,10,08,27,10.40
2016,11,10,08,28,10.40
2016,11,10,08,29,10.40
2016,11,10,08,30,10.40
2016,11,10,08,31,10.40
2016,11,10,08,32,10.40
2016,11,10,08,33,10.40
2016,11,10,08,34,10.40
2016,11,10,08,35,10.40
2016,11,10,08,36,10.40
2016,11,10,08,37,10.40
2016,11,10,08,38,10.40
2016,11,10,08,39,10.40
2016,11,10,08,40,10.40
2016,11,10,08,41,10.40
2016,11,10,08,42,10.40
2016,11,10,08,43,10.40
2016,11,10,08,44,10.40
2016,11,10,08,45,10.40
2016,11,10,08,46,10.50
2016,11,10,08,47,10.50
2016,11,10,08,48,10.50
2016,11,10,08,49,10.50
2016,11,10,08,50,10.60
2016,11,10,08,51,10.60
2016,11,10,08,52,10.60
2016,11,10,08,53,10.60
2016,11,10,08,54,10.70
2016,11,10,08,55,10.70
2016,11,10,08,56,10.70
2016,11,10,08,57,10.70
2016,11,10,08,58,10.70
2016,11,10,08,59,10.80
2016,11,10,09,00,10.80
2016,11,10,09,01,10.80
2016,11,10,09,02,10.80
2016,11,10,09,03,10.80
2016,11,10,09,04,10.80
2016,11,10,09,05,10.80
2016,11,10,09,06,10.80
2016,11,10,09,07,10.80
2016,11,10,09,08,10.80
2016,11,10,09,09,10.80
2016,11,10,09,10,10.90
2016,11,10,09,11,10.90
2016,11,10,09,12,10.90
2016,11,10,09,13,10.90
2016,11,10,09,14,10.90
2016,11,10,09,15,10.90
2016,11,10,09,16,11.00
2016,11,10,09,17,11.00
2016,11,10,09,18,11.00
2016,11,10,09,19,11.00
2016,11,10,09,20,11.00
2016,11,10,09,21,11.00
2016,11,10,09,22,11.00
2016,11,10,09,23,11.00
2016,11,10,09,24,11.00
2016,11,10,09,25,11.00
2016,11,10,09,26,11.00
2016,11,10,09,27,10.90
2016,11,10,09,28,10.90
2016,11,10,09,29,10.90
2016,11,10,09,30,10.90
2016,11,10,09,31,10.90
2016,11,10,09,32,10.90
2016,11,10,09,33,10.90
2016,11,10,09,34,11.00
2016,11,10,09,35,11.00
2016,11,10,09,36,11.00
2016,11,10,09,37,11.00
2016,11,10,09,38,10.90
2016,11,10,09,39,10.90
2016,11,10,09,40,11.00
2016,11,10,09,41,10.90
2016,11,10,09,42,11.00
2016,11,10,09,43,11.00
2016,11,10,09,44,11.00
2016,11,10,09,45,11.00
2016,11,10,09,46,11.00
2016,11,10,09,47,11.00
2016,11,10,09,48,11.00
2016,11,10,09,49,11.00
2016,11,10,09,50,11.00
2016,11,10,09,51,11.00
2016,11,10,09,52,11.10
2016,11,10,09,53,11.10
2016,11,10,09,54,11.10
2016,11,10,09,55,11.20
2016,11,10,09,56,11.30
2016,11,10,09,57,11.30
2016,11,10,09,58,11.30
2016,11,10,09,59,11.30
2016,11,10,10,00,11.40
2016,11,10,10,01,11.40
2016,11,10,10,02,11.40
2016,11,10,10,03,11.50
2016,11,10,10,04,11.60
2016,11,10,10,05,11.60
2016,11,10,10,06,11.70
2016,11,10,10,07,11.70
2016,11,10,10,08,11.70
2016,11,10,10,09,11.70
2016,11,10,10,10,11.80
2016,11,10,10,11,11.80
2016,11,10,10,12,11.80
2016,11,10,10,13,11.80
2016,11,10,10,14,11.90
2016,11,10,10,15,11.90
2016,11,10,10,16,12.00
2016,11,10,10,17,12.00
2016,11,10,10,18,12.10
2016,11,10,10,19,12.10
2016,11,10,10,20,12.20
2016,11,10,10,21,12.20
2016,11,10,10,22,12.20
2016,11,10,10,23,12.10
2016,11,10,10,24,12.00
2016,11,10,10,25,11.90
2016,11,10,10,26,11.80
2016,11,10,10,27,11.70
2016,11,10,10,28,11.70
2016,11,10,10,29,11.60
2016,11,10,10,30,11.60
2016,11,10,10,31,11.60
2016,11,10,10,32,11.50
2016,11,10,10,33,11.50
2016,11,10,10,34,11.50
2016,11,10,10,35,11.50
2016,11,10,10,36,11.50
2016,11,10,10,37,11.50
2016,11,10,10,38,11.50
2016,11,10,10,39,11.50
2016,11,10,10,40,11.50
2016,11,10,10,41,11.50
2016,11,10,10,42,11.60
2016,11,10,10,43,11.60
2016,11,10,10,44,11.60
2016,11,10,10,45,11.60
2016,11,10,10,46,11.60
2016,11,10,10,47,11.60
2016,11,10,10,48,11.60
2016,11,10,10,49,11.60
2016,11,10,10,50,11.60
2016,11,10,10,51,11.60
2016,11,10,10,52,11.60
2016,11,10,10,53,11.60
2016,11,10,10,54,11.60
2016,11,10,10,55,11.70
2016,11,10,10,56,11.70
2016,11,10,10,57,11.70
2016,11,10,10,58,11.70
2016,11,10,10,59,11.70
2016,11,10,11,00,11.70
2016,11,10,11,01,11.70
2016,11,10,11,02,11.80
2016,11,10,11,03,11.80
2016,11,10,11,04,11.80
2016,11,10,11,05,11.80
2016,11,10,11,06,11.70
2016,11,10,11,07,11.70
2016,11,10,11,08,11.70
2016,11,10,11,09,11.70
2016,11,10,11,10,11.70
2016,11,10,11,11,11.70
2016,11,10,11,12,11.70
2016,11,10,11,13,11.70
2016,11,10,11,14,11.60
2016,11,10,11,15,11.60
2016,11,10,11,16,11.60
2016,11,10,11,17,11.50
2016,11,10,11,18,11.50
2016,11,10,11,19,11.50
2016,11,10,11,20,11.40
2016,11,10,11,21,11.40
2016,11,10,11,22,11.40
2016,11,10,11,23,11.40
2016,11,10,11,24,11.40
2016,11,10,11,25,11.40
2016,11,10,11,26,11.40
2016,11,10,11,27,11.40
2016,11,10,11,28,11.40
2016,11,10,11,29,11.40
2016,11,10,11,30,11.30
2016,11,10,11,31,11.30
2016,11,10,11,32,11.30
2016,11,10,11,33,11.30
2016,11,10,11,34,11.30
2016,11,10,11,35,11.30
2016,11,10,11,36,11.30
2016,11,10,11,37,11.30
2016,11,10,11,38,11.30
2016,11,10,11,39,11.30
2016,11,10,11,40,11.40
2016,11,10,11,41,11.40
2016,11,10,11,42,11.50
2016,11,10,11,43,11.50
2016,11,10,11,44,11.60
2016,11,10,11,45,11.60
2016,11,10,11,46,11.70
2016,11,10,11,47,11.70
2016,11,10,11,48,11.70
2016,11,10,11,49,11.70
2016,11,10,11,50,11.80
2016,11,10,11,51,11.80
2016,11,10,11,52,11.80
2016,11,10,11,53,11.80
2016,11,10,11,54,11.80
2016,11,10,11,55,11.90
2016,11,10,11,56,11.90
2016,11,10,11,57,12.00
2016,11,10,11,58,12.10
2016,11,10,11,59,12.20
2016,11,10,12,00,12.30
2016,11,10,12,01,12.30
2016,11,10,12,02,12.30
2016,11,10,12,03,12.30
2016,11,10,12,04,12.30
2016,11,10,12,05,12.40
2016,11,10,12,06,12.40
2016,11,10,12,07,12.40
2016,11,10,12,08,12.40
2016,11,10,12,09,12.40
2016,11,10,12,10,12.50
2016,11,10,12,11,12.40
2016,11,10,12,12,12.40
2016,11,10,12,13,12.30
2016,11,10,12,14,12.30
2016,11,10,12,15,12.30
2016,11,10,12,16,12.40
2016,11,10,12,17,12.40
2016,11,10,12,18,12.40
2016,11,10,12,19,12.40
2016,11,10,12,20,12.40
2016,11,10,12,21,12.40
2016,11,10,12,22,12.50
2016,11,10,12,23,12.50
2016,11,10,12,24,12.60
2016,11,10,12,25,12.60
2016,11,10,12,26,12.60
2016,11,10,12,27,12.60
2016,11,10,12,28,12.50
2016,11,10,12,29,12.50
2016,11,10,12,30,12.50
2016,11,10,12,31,12.50
2016,11,10,12,32,12.50
2016,11,10,12,33,12.60
2016,11,10,12,34,12.60
2016,11,10,12,35,12.60
2016,11,10,12,36,12.70
2016,11,10,12,37,12.70
2016,11,10,12,38,12.70
2016,11,10,12,39,12.60
2016,11,10,12,40,12.60
2016,11,10,12,41,12.60
2016,11,10,12,42,12.60
2016,11,10,12,43,12.60
2016,11,10,12,44,12.60
2016,11,10,12,45,12.60
2016,11,10,12,46,12.60
2016,11,10,12,47,12.70
2016,11,10,12,48,12.70
2016,11,10,12,49,12.80
2016,11,10,12,50,12.90
2016,11,10,12,51,13.00
2016,11,10,12,52,13.10
2016,11,10,12,53,13.10
2016,11,10,12,54,13.10
2016,11,10,12,55,13.00
2016,11,10,12,56,13.00
2016,11,10,12,57,12.90
2016,11,10,12,58,13.00
2016,11,10,12,59,13.00
2016,11,10,13,00,13.00
2016,11,10,13,01,13.10
2016,11,10,13,02,13.10
2016,11,10,13,03,13.10
2016,11,10,13,04,13.00
2016,11,10,13,05,12.90
2016,11,10,13,06,12.90
2016,11,10,13,07,12.90
2016,11,10,13,08,12.90
2016,11,10,13,09,12.90
2016,11,10,13,10,13.00
2016,11,10,13,11,13.10
2016,11,10,13,12,13.10
2016,11,10,13,13,13.10
2016,11,10,13,14,13.10
2016,11,10,13,15,13.20
2016,11,10,13,16,13.20
2016,11,10,13,17,13.30
2016,11,10,13,18,13.30
2016,11,10,13,19,13.30
2016,11,10,13,20,13.30
2016,11,10,13,21,13.30
2016,11,10,13,22,13.30
2016,11,10,13,23,13.30
2016,11,10,13,24,13.30
2016,11,10,13,25,13.30
2016,11,10,13,26,13.20
2016,11,10,13,27,13.20
2016,11,10,13,28,13.20
2016,11,10,13,29,13.10
2016,11,10,13,30,13.10
2016,11,10,13,31,13.10
2016,11,10,13,32,13.10
2016,11,10,13,33,13.20
2016,11,10,13,34,13.20
2016,11,10,13,35,13.20
2016,11,10,13,36,13.20
2016,11,10,13,37,13.20
2016,11,10,13,38,13.30
2016,11,10,13,39,13.30
2016,11,10,13,40,13.30
2016,11,10,13,41,13.30
2016,11,10,13,42,13.30
2016,11,10,13,43,13.30
2016,11,10,13,44,13.30
2016,11,10,13,45,13.40
2016,11,10,13,46,13.40
2016,11,10,13,47,13.50
2016,11,10,13,48,13.50
2016,11,10,13,49,13.50
2016,11,10,13,50,13.50
2016,11,10,13,51,13.50
2016,11,10,13,52,13.50
2016,11,10,13,53,13.50
2016,11,10,13,54,13.50
2016,11,10,13,55,13.50
2016,11,10,13,56,13.50
2016,11,10,13,57,13.50
2016,11,10,13,58,13.50
2016,11,10,13,59,13.50
2016,11,10,14,00,13.50
2016,11,10,14,01,13.50
2016,11,10,14,02,13.50
2016,11,10,14,03,13.50
2016,11,10,14,04,13.40
2016,11,10,14,05,13.40
2016,11,10,14,06,13.40
2016,11,10,14,07,13.50
2016,11,10,14,08,13.50
2016,11,10,14,09,13.50
2016,11,10,14,10,13.60
2016,11,10,14,11,13.60
2016,11,10,14,12,13.60
2016,11,10,14,13,13.60
2016,11,10,14,14,13.70
2016,11,10,14,15,13.70
2016,11,10,14,16,13.70
2016,11,10,14,17,13.70
2016,11,10,14,18,13.80
2016,11,10,14,19,13.80
2016,11,10,14,20,13.70
2016,11,10,14,21,13.70
2016,11,10,14,22,13.60
2016,11,10,14,23,13.60
2016,11,10,14,24,13.50
2016,11,10,14,25,13.50
2016,11,10,14,26,13.50
2016,11,10,14,27,13.50
2016,11,10,14,28,13.50
2016,11,10,14,29,13.40
2016,11,10,14,30,13.40
2016,11,10,14,31,13.40
2016,11,10,14,32,13.40
2016,11,10,14,33,13.40
2016,11,10,14,34,13.40
2016,11,10,14,35,13.40
2016,11,10,14,36,13.40
2016,11,10,14,37,13.40
2016,11,10,14,38,13.40
2016,11,10,14,39,13.40
2016,11,10,14,40,13.40
2016,11,10,14,41,13.40
2016,11,10,14,42,13.40
2016,11,10,14,43,13.40
2016,11,10,14,44,13.40
2016,11,10,14,45,13.40
2016,11,10,14,46,13.40
2016,11,10,14,47,13.30
2016,11,10,14,48,13.30
2016,11,10,14,49,13.30
2016,11,10,14,50,13.30
2016,11,10,14,51,13.20
2016,11,10,14,52,13.20
2016,11,10,14,53,13.20
2016,11,10,14,54,13.10
2016,11,10,14,55,13.10
2016,11,10,14,56,13.00
2016,11,10,14,57,12.90
2016,11,10,14,58,12.90
2016,11,10,14,59,12.80
2016,11,10,15,00,12.70
2016,11,10,15,01,12.60
2016,11,10,15,02,12.50
2016,11,10,15,03,12.40
2016,11,10,15,04,12.40
2016,11,10,15,05,12.30
2016,11,10,15,06,12.30
2016,11,10,15,07,12.30
2016,11,10,15,08,12.30
2016,11,10,15,09,12.20
2016,11,10,15,10,12.20
2016,11,10,15,11,12.20
2016,11,10,15,12,12.20
2016,11,10,15,13,12.20
2016,11,10,15,14,12.20
2016,11,10,15,15,12.20
2016,11,10,15,16,12.10
2016,11,10,15,17,12.10
2016,11,10,15,18,12.10
2016,11,10,15,19,12.10
2016,11,10,15,20,12.10
2016,11,10,15,21,12.10
2016,11,10,15,22,12.10
2016,11,10,15,23,12.10
2016,11,10,15,24,12.10
2016,11,10,15,25,12.10
2016,11,10,15,26,12.10
2016,11,10,15,27,12.10
2016,11,10,15,28,12.00
2016,11,10,15,29,12.00
2016,11,10,15,30,12.00
2016,11,10,15,31,11.90
2016,11,10,15,32,11.90
2016,11,10,15,33,11.90
2016,11,10,15,34,11.90
2016,11,10,15,35,11.90
2016,11,10,15,36,11.90
2016,11,10,15,37,11.90
2016,11,10,15,38,11.90
2016,11,10,15,39,11.90
2016,11,10,15,40,12.00
2016,11,10,15,41,11.90
2016,11,10,15,42,11.90
2016,11,10,15,43,11.90
2016,11,10,15,44,11.90
2016,11,10,15,45,11.80
2016,11,10,15,46,11.80
2016,11,10,15,47,11.80
2016,11,10,15,48,11.80
2016,11,10,15,49,11.80
2016,11,10,15,50,11.90
2016,11,10,15,51,11.80
2016,11,10,15,52,11.90
2016,11,10,15,53,11.80
2016,11,10,15,54,11.80
2016,11,10,15,55,11.80
2016,11,10,15,56,11.80
2016,11,10,15,57,11.80
2016,11,10,15,58,11.80
2016,11,10,15,59,11.80
2016,11,10,16,00,11.80
2016,11,10,16,01,11.80
2016,11,10,16,02,11.80
2016,11,10,16,03,11.80
2016,11,10,16,04,11.80
2016,11,10,16,05,11.80
2016,11,10,16,06,11.80
2016,11,10,16,07,11.80
2016,11,10,16,08,11.80
2016,11,10,16,09,11.80
2016,11,10,16,10,11.70
2016,11,10,16,11,11.70
2016,11,10,16,12,11.70
2016,11,10,16,13,11.70
2016,11,10,16,14,11.70
2016,11,10,16,15,11.60
2016,11,10,16,16,11.60
2016,11,10,16,17,11.60
2016,11,10,16,18,11.50
2016,11,10,16,19,11.50
2016,11,10,16,20,11.50
2016,11,10,16,21,11.50
2016,11,10,16,22,11.50
2016,11,10,16,23,11.40
2016,11,10,16,24,11.40
2016,11,10,16,25,11.40
2016,11,10,16,26,11.40
2016,11,10,16,27,11.40
2016,11,10,16,28,11.40
2016,11,10,16,29,11.40
2016,11,10,16,30,11.40
2016,11,10,16,31,11.50
2016,11,10,16,32,11.50
2016,11,10,16,33,11.50
2016,11,10,16,34,11.50
2016,11,10,16,35,11.50
2016,11,10,16,36,11.50
2016,11,10,16,37,11.50
2016,11,10,16,38,11.70
2016,11,10,16,39,11.70
2016,11,10,16,40,11.60
2016,11,10,16,41,11.60
2016,11,10,16,42,11.70
2016,11,10,16,43,11.70
2016,11,10,16,44,11.70
2016,11,10,16,45,11.70
2016,11,10,16,46,11.70
2016,11,10,16,47,11.80
2016,11,10,16,48,11.80
2016,11,10,16,49,11.80
2016,11,10,16,50,11.80
2016,11,10,16,51,11.80
2016,11,10,16,52,11.80
2016,11,10,16,53,11.80
2016,11,10,16,54,11.90
2016,11,10,16,55,11.90
2016,11,10,16,56,11.90
2016,11,10,16,57,11.90
2016,11,10,16,58,11.90
2016,11,10,16,59,11.90
2016,11,10,17,00,11.90
2016,11,10,17,01,12.00
2016,11,10,17,02,12.00
2016,11,10,17,03,12.00
2016,11,10,17,04,12.00
2016,11,10,17,05,12.00
2016,11,10,17,06,12.00
2016,11,10,17,07,12.00
2016,11,10,17,08,12.00
2016,11,10,17,09,12.10
2016,11,10,17,10,12.00
2016,11,10,17,11,12.00
2016,11,10,17,12,12.10
2016,11,10,17,13,12.00
2016,11,10,17,14,12.00
2016,11,10,17,15,12.10
2016,11,10,17,16,12.10
2016,11,10,17,17,12.10
2016,11,10,17,18,12.10
2016,11,10,17,19,12.10
2016,11,10,17,20,12.00
2016,11,10,17,21,12.00
2016,11,10,17,22,12.00
2016,11,10,17,23,11.90
2016,11,10,17,24,11.90
2016,11,10,17,25,11.90
2016,11,10,17,26,11.90
2016,11,10,17,27,11.90
2016,11,10,17,28,12.00
2016,11,10,17,29,12.00
2016,11,10,17,30,12.00
2016,11,10,17,31,12.10
2016,11,10,17,32,12.10
2016,11,10,17,33,12.10
2016,11,10,17,34,12.00
2016,11,10,17,35,12.00
2016,11,10,17,36,12.00
2016,11,10,17,37,12.00
2016,11,10,17,38,11.90
2016,11,10,17,39,11.90
2016,11,10,17,40,11.80
2016,11,10,17,41,11.80
2016,11,10,17,42,11.80
2016,11,10,17,43,11.80
2016,11,10,17,44,11.80
2016,11,10,17,45,11.80
2016,11,10,17,46,11.90
2016,11,10,17,47,11.90
2016,11,10,17,48,11.90
2016,11,10,17,49,11.90
2016,11,10,17,50,11.90
2016,11,10,17,51,11.90
2016,11,10,17,52,11.80
2016,11,10,17,53,11.90
2016,11,10,17,54,11.70
2016,11,10,17,55,11.70
2016,11,10,17,56,11.70
2016,11,10,17,57,11.70
2016,11,10,17,58,11.70
2016,11,10,17,59,11.70
2016,11,10,18,00,11.70
2016,11,10,18,01,11.70
2016,11,10,18,02,11.60
2016,11,10,18,03,11.60
2016,11,10,18,04,11.60
2016,11,10,18,05,11.60
2016,11,10,18,06,11.60
2016,11,10,18,07,11.60
2016,11,10,18,08,11.60
2016,11,10,18,09,11.60
2016,11,10,18,10,11.60
2016,11,10,18,11,11.70
2016,11,10,18,12,11.70
2016,11,10,18,13,11.60
2016,11,10,18,14,11.60
2016,11,10,18,15,11.60
2016,11,10,18,16,11.60
2016,11,10,18,17,11.60
2016,11,10,18,18,11.60
2016,11,10,18,19,11.60
2016,11,10,18,20,11.60
2016,11,10,18,21,11.60
2016,11,10,18,22,11.60
2016,11,10,18,23,11.60
2016,11,10,18,24,11.60
2016,11,10,18,25,11.60
2016,11,10,18,26,11.60
2016,11,10,18,27,11.60
2016,11,10,18,28,11.60
2016,11,10,18,29,11.60
2016,11,10,18,30,11.60
2016,11,10,18,31,11.60
2016,11,10,18,32,11.60
2016,11,10,18,33,11.60
2016,11,10,18,34,11.50
2016,11,10,18,35,11.50
2016,11,10,18,36,11.60
2016,11,10,18,37,11.50
2016,11,10,18,38,11.60
2016,11,10,18,39,11.60
2016,11,10,18,40,11.60
2016,11,10,18,41,11.50
2016,11,10,18,42,11.50
2016,11,10,18,43,11.50
2016,11,10,18,44,11.50
2016,11,10,18,45,11.40
2016,11,10,18,46,11.40
2016,11,10,18,47,11.40
2016,11,10,18,48,11.40
2016,11,10,18,49,11.40
2016,11,10,18,50,11.40
2016,11,10,18,51,11.40
2016,11,10,18,52,11.40
2016,11,10,18,53,11.40
2016,11,10,18,54,11.40
2016,11,10,18,55,11.40
2016,11,10,18,56,11.50
2016,11,10,18,57,11.50
2016,11,10,18,58,11.50
2016,11,10,18,59,11.40
2016,11,10,19,00,11.40
2016,11,10,19,01,11.40
2016,11,10,19,02,11.40
2016,11,10,19,03,11.40
2016,11,10,19,04,11.40
2016,11,10,19,05,11.40
2016,11,10,19,06,11.40
2016,11,10,19,07,11.40
2016,11,10,19,08,11.40
2016,11,10,19,09,11.40
2016,11,10,19,10,11.40
2016,11,10,19,11,11.40
2016,11,10,19,12,11.40
2016,11,10,19,13,11.40
2016,11,10,19,14,11.40
2016,11,10,19,15,11.40
2016,11,10,19,16,11.40
2016,11,10,19,17,11.40
2016,11,10,19,18,11.40
2016,11,10,19,19,11.40
2016,11,10,19,20,11.40
2016,11,10,19,21,11.40
2016,11,10,19,22,11.40
2016,11,10,19,23,11.40
2016,11,10,19,24,11.40
2016,11,10,19,25,11.40
2016,11,10,19,26,11.50
2016,11,10,19,27,11.50
2016,11,10,19,28,11.50
2016,11,10,19,29,11.60
2016,11,10,19,30,11.60
2016,11,10,19,31,11.60
2016,11,10,19,32,11.60
2016,11,10,19,33,11.60
2016,11,10,19,34,11.70
2016,11,10,19,35,11.70
2016,11,10,19,36,11.70
2016,11,10,19,37,11.70
2016,11,10,19,38,11.70
2016,11,10,19,39,11.70
2016,11,10,19,40,11.70
2016,11,10,19,41,11.70
2016,11,10,19,42,11.60
2016,11,10,19,43,11.60
2016,11,10,19,44,11.60
2016,11,10,19,45,11.60
2016,11,10,19,46,11.60
2016,11,10,19,47,11.70
2016,11,10,19,48,11.70
2016,11,10,19,49,11.80
2016,11,10,19,50,11.80
2016,11,10,19,51,11.80
2016,11,10,19,52,11.80
2016,11,10,19,53,11.80
2016,11,10,19,54,11.80
2016,11,10,19,55,11.80
2016,11,10,19,56,11.80
2016,11,10,19,57,11.80
2016,11,10,19,58,11.70
2016,11,10,19,59,11.70
2016,11,10,20,00,11.70
2016,11,10,20,01,11.70
2016,11,10,20,02,11.70
2016,11,10,20,03,11.70
2016,11,10,20,04,11.70
2016,11,10,20,05,11.70
2016,11,10,20,06,11.70
2016,11,10,20,07,11.70
2016,11,10,20,08,11.70
2016,11,10,20,09,11.70
2016,11,10,20,10,11.70
2016,11,10,20,11,11.70
2016,11,10,20,12,11.70
2016,11,10,20,13,11.70
2016,11,10,20,14,11.60
2016,11,10,20,15,11.60
2016,11,10,20,16,11.60
2016,11,10,20,17,11.60
2016,11,10,20,18,11.60
2016,11,10,20,19,11.60
2016,11,10,20,20,11.60
2016,11,10,20,21,11.60
2016,11,10,20,22,11.60
2016,11,10,20,23,11.70
2016,11,10,20,24,11.70
2016,11,10,20,25,11.70
2016,11,10,20,26,11.70
2016,11,10,20,27,11.70
2016,11,10,20,28,11.70
2016,11,10,20,29,11.70
2016,11,10,20,30,11.70
2016,11,10,20,31,11.70
2016,11,10,20,32,11.70
2016,11,10,20,33,11.70
2016,11,10,20,34,11.80
2016,11,10,20,35,11.80
2016,11,10,20,36,11.70
2016,11,10,20,37,11.70
2016,11,10,20,38,11.70
2016,11,10,20,39,11.70
2016,11,10,20,40,11.70
2016,11,10,20,41,11.70
2016,11,10,20,42,11.70
2016,11,10,20,43,11.70
2016,11,10,20,44,11.70
2016,11,10,20,45,11.70
2016,11,10,20,46,11.70
2016,11,10,20,47,11.70
2016,11,10,20,48,11.70
2016,11,10,20,49,11.70
2016,11,10,20,50,11.70
2016,11,10,20,51,11.60
2016,11,10,20,52,11.60
2016,11,10,20,53,11.60
2016,11,10,20,54,11.60
2016,11,10,20,55,11.60
2016,11,10,20,56,11.60
2016,11,10,20,57,11.60
2016,11,10,20,58,11.60
2016,11,10,20,59,11.60